London City, United Kingdom

10:39 PM BST on July 25, 2017 (GMT +0100)
London City

Weather History for EGLC - March, 2014

Change the Weather History Date:

Saturday, March 29, 2014

  Actual Average Record
Temperature  
Mean Temperature 55 °F -  
Max Temperature 66 °F 53 °F 66 °F (2014)
Min Temperature 44 °F 44 °F 30 °F (2013)
Degree Days  
Heating Degree Days 10    
Growing Degree Days 5 (Base 50)    
Moisture  
Dew Point 44 °F    
Average Humidity 74    
Maximum Humidity 100    
Minimum Humidity 30    
Precipitation  
Precipitation 0.00 in - - ()
Sea Level Pressure  
Sea Level Pressure 29.96 in    
Wind  
Wind Speed 10 mph ()    
Max Wind Speed 18 mph    
Max Gust Speed 30 mph    
Visibility 3.7 miles    
Events      
Averages and records for this station are not official NWS values.
T = Trace of Precipitation, MM = Missing Value Source: Averaged Metar Reports

Daily Weather History Graph

Daily Weather History Graph

Search for Another Location

Airport or City:

Trip Planner

Search our weather history database for the weather conditions in past years. The results will help you decide how hot, cold, wet, or windy it might be!

Date:

Astronomy

Mar. 29, 2014 Rise Set
Actual Time 5:42 AM GMT 6:27 PM GMT
Civil Twilight 5:08 AM GMT 7:01 PM GMT
Nautical Twilight 4:28 AM GMT 7:42 PM GMT
Astronomical Twilight 3:45 AM GMT 8:25 PM GMT
Moon 4:51 AM GMT (3/29) 5:09 PM GMT (3/29)
Length of Visible Light 13h 52m
Length of Day
12h 45m
Waning Crescent, 2% of the Moon is Illuminated
Mar 29
Waning Crescent
Mar 30
New
Apr 7
First Quarter
Apr 15
Full
Apr 22
Last Quarter

Hourly Weather History & Observations

Time (GMT) Temp. Windchill Dew Point Humidity Pressure Visibility Wind Dir Wind Speed Gust Speed Precip Events Conditions
12:20 AM 46.4 °F 42.9 °F 44.6 °F 93% 30.01 in 1.5 mi ENE 6.9 mph - N/A   Mist
12:50 AM 44.6 °F 40.7 °F 42.8 °F 93% 30.01 in 1.4 mi East 6.9 mph - N/A   Mist
1:20 AM 46.4 °F 41.5 °F 44.6 °F 93% 30.01 in 1.4 mi East 10.4 mph - N/A   Mist
1:50 AM 46.4 °F 40.4 °F 44.6 °F 93% 30.01 in 1.3 mi East 13.8 mph - N/A   Scattered Clouds
2:20 AM 46.4 °F 40.4 °F 44.6 °F 93% 30.01 in 1.3 mi East 13.8 mph - N/A   Partly Cloudy
2:50 AM 46.4 °F 41.5 °F 44.6 °F 93% 30.01 in 1.0 mi East 10.4 mph - N/A   Scattered Clouds
3:20 AM 46.4 °F 41.9 °F 44.6 °F 93% 29.98 in 1.0 mi East 9.2 mph - N/A   Mist
3:50 AM 46.4 °F 41.9 °F 44.6 °F 93% 29.98 in 0.9 mi East 9.2 mph - N/A   Mist
4:20 AM 46.4 °F 41.9 °F 44.6 °F 93% 29.98 in 0.8 mi East 9.2 mph - N/A   Mist
4:50 AM 44.6 °F 40.2 °F 44.6 °F 100% 29.98 in 0.7 mi East 8.1 mph - N/A   Mist
5:20 AM 46.4 °F 41.9 °F 44.6 °F 93% 29.98 in 0.9 mi East 9.2 mph - N/A   Mist
5:50 AM 44.6 °F 40.7 °F 44.6 °F 100% 29.98 in 0.9 mi East 6.9 mph - N/A   Partly Cloudy
6:20 AM 44.6 °F 39.7 °F 44.6 °F 100% 29.98 in 0.9 mi East 9.2 mph - N/A   Mist
6:50 AM 46.4 °F 41.9 °F 44.6 °F 93% 30.01 in 1.1 mi East 9.2 mph - N/A   Mist
7:20 AM 46.4 °F 41.9 °F 46.4 °F 100% 30.01 in 1.1 mi East 9.2 mph - N/A   Mist
7:50 AM 50.0 °F - 46.4 °F 87% 30.01 in 3.1 mi East 10.4 mph - N/A   Mist
8:20 AM 51.8 °F - 46.4 °F 82% 30.01 in 3.7 mi East 9.2 mph - N/A   Unknown
8:50 AM 53.6 °F - 46.4 °F 77% 30.01 in 3.7 mi East 9.2 mph - N/A   Unknown
9:20 AM 55.4 °F - 44.6 °F 67% 30.01 in 5.0 mi East 11.5 mph - N/A   Unknown
10:20 AM 57.2 °F - 44.6 °F 63% 29.98 in 5.6 mi East 11.5 mph - N/A   Unknown
10:50 AM 57.2 °F - 46.4 °F 67% 29.98 in 5.0 mi East 11.5 mph - N/A   Unknown
11:20 AM 59.0 °F - 46.4 °F 63% 29.98 in 5.0 mi East 10.4 mph - N/A   Unknown
11:50 AM 62.6 °F - 44.6 °F 52% 29.98 in 5.6 mi East 13.8 mph - N/A   Unknown
12:20 PM 62.6 °F - 44.6 °F 52% 29.95 in - East 15.0 mph - N/A   Clear
12:50 PM 62.6 °F - 42.8 °F 48% 29.95 in 6.2 mi East 16.1 mph - N/A   Unknown
1:20 PM 64.4 °F - 39.2 °F 40% 29.92 in 6.2 mi East 16.1 mph - N/A   Unknown
1:50 PM 66.2 °F - 33.8 °F 30% 29.92 in 6.2 mi ESE 17.3 mph 29.9 mph N/A   Unknown
2:20 PM 66.2 °F - 33.8 °F 30% 29.92 in 6.2 mi SE 18.4 mph - N/A   Unknown
2:50 PM 64.4 °F - 42.8 °F 45% 29.92 in 6.2 mi East 11.5 mph - N/A   Unknown
3:20 PM 62.6 °F - 42.8 °F 48% 29.92 in 6.2 mi East 17.3 mph - N/A   Unknown
3:50 PM 62.6 °F - 44.6 °F 52% 29.92 in 6.2 mi East 18.4 mph - N/A   Unknown
4:20 PM 60.8 °F - 42.8 °F 52% 29.92 in 6.2 mi East 17.3 mph - N/A   Unknown
4:50 PM 60.8 °F - 44.6 °F 55% 29.92 in 6.2 mi East 15.0 mph - N/A   Unknown
5:20 PM 59.0 °F - 44.6 °F 59% 29.92 in 6.2 mi ESE 15.0 mph - N/A   Unknown
5:50 PM 57.2 °F - 44.6 °F 63% 29.92 in 6.2 mi East 12.7 mph - N/A   Unknown
6:20 PM 55.4 °F - 44.6 °F 67% 29.92 in 5.6 mi East 9.2 mph - N/A   Unknown
6:50 PM 55.4 °F - 44.6 °F 67% 29.92 in 5.6 mi East 9.2 mph - N/A   Unknown
7:20 PM 53.6 °F - 44.6 °F 72% 29.95 in 5.0 mi East 8.1 mph - N/A   Unknown
7:50 PM 53.6 °F - 44.6 °F 72% 29.95 in 4.3 mi East 10.4 mph - N/A   Unknown
8:20 PM 51.8 °F - 44.6 °F 76% 29.95 in 4.3 mi East 8.1 mph - N/A   Unknown
8:50 PM 51.8 °F - 46.4 °F 82% 29.95 in 3.7 mi East 8.1 mph - N/A   Unknown
9:20 PM 51.8 °F - 46.4 °F 82% 29.95 in 3.7 mi East 8.1 mph - N/A   Unknown
9:50 PM 51.8 °F - 46.4 °F 82% 29.95 in 3.1 mi East 6.9 mph - N/A   Mist
10:20 PM 51.8 °F - 46.4 °F 82% 29.92 in 3.1 mi East 5.8 mph - N/A   Mist
10:50 PM 51.8 °F - 46.4 °F 82% 29.92 in - East 4.6 mph - N/A   Mist
11:20 PM 50.0 °F - 44.6 °F 82% 29.92 in 2.8 mi East 6.9 mph - N/A   Mist
11:50 PM 50.0 °F - 44.6 °F 82% 29.92 in - East 8.1 mph - N/A   Mist